(66916) = 1998 HY141 = 1999 VG176

Discovered at Socorro on 1999-11-03 by LINEAR.

Orbit

Orbit type: Main Belt

Note: WebGL enabled browser required.

epoch2023-02-25.0
epoch JD2460000.5
perihelion date2020-04-29.65373
perihelion JD2458969.15373
argument of perihelion (°)322.02682
ascending node (°)343.32898
inclination (°)4.95497
eccentricity0.2809013
perihelion distance (AU)1.8849106
Tisserand w.r.t. Jupiter3.3
ΔV w.r.t. Earth (km/sec)8.8
semimajor axis (AU)2.6212125
mean anomaly (°)239.52729
mean daily motion (°/day)0.23224720
aphelion distance (AU)3.358
period (years)4.24
P-vector [x]0.57931176
P-vector [y]-0.72511427
P-vector [z]-0.37229985
Q-vector [x]0.81472935
Q-vector [y]0.50122999
Q-vector [z]0.29152115
absolute magnitude15.85
phase slope0.15
uncertainty0
referenceMPO 745323
observations used975
oppositions19
arc length (days)9184
first opposition used1998
last opposition used2023
residual rms (arc-secs)0.72
perturbers coarse indicatorM-v
perturbers precise indicator003Ek
first observation date used1998-03-29.0
last observation date used2023-05-21.0
computer nameMPCLINUX
JD of orbit computation2456731.528861
perihelion JD uncertainty (days)5.1086E-05
argument of perihelion uncertainty (°)4.7351E-05
ascending node uncertainty (°)4.6698E-05
inclination uncertainty (°)5.8641E-06
eccentricity uncertainty 5.7053E-08
perihelion distance uncertainty (AU)1.6143E-07
Minimum Orbit Intersection Distances (in AU)
for orbit epoch: 2460000.5, reference: E2023-K85
Mercury1.44595
Venus1.15676
Earth0.87192
Mars0.48362
Jupiter1.91541
Saturn5.77906
Uranus15.1943
Neptune26.9234

Observations

1000 total observations over interval: 1998 03 29.29727 – 2023 05 21.163867
These data are available for download (format description).

Date (UT) J2000 RA J2000 Dec Magn Location Ref
1998 03 29.29727 13 41 32.19 -15 37 15.7 19.3   704 – Lincoln Laboratory ETS, New Mexico MPS 16634
1998 03 29.31745 13 41 31.25 -15 37 15.4 19.3   704 – Lincoln Laboratory ETS, New Mexico MPS 16634
1998 03 29.33775 13 41 30.30 -15 37 11.0 19.6   704 – Lincoln Laboratory ETS, New Mexico MPS 16634
1998 03 29.35810 13 41 29.07 -15 37 10.4 19.3   704 – Lincoln Laboratory ETS, New Mexico MPS 16634
1998 04 21.21822 13 20 04.09 -14 25 14.8 19.3   704 – Lincoln Laboratory ETS, New Mexico MPS 1435
1998 04 21.23829 13 20 02.92 -14 25 09.5 19.3   704 – Lincoln Laboratory ETS, New Mexico MPS 1435
1998 04 21.25832 13 20 01.49 -14 25 07.8 19.0   704 – Lincoln Laboratory ETS, New Mexico MPS 1435
1998 04 21.27840 13 20 00.05 -14 25 01.7 19.4   704 – Lincoln Laboratory ETS, New Mexico MPS 1435
1998 04 22.16483 13 19 08.25 -14 21 17.4 19.1   704 – Lincoln Laboratory ETS, New Mexico MPS 1435
1998 04 22.18363 13 19 07.15 -14 21 12.9 19.0   704 – Lincoln Laboratory ETS, New Mexico MPS 1435
1998 04 22.20245 13 19 05.94 -14 21 08.2 19.0   704 – Lincoln Laboratory ETS, New Mexico MPS 1435
1999 10 12.27186 02 43 25.15 +22 20 55.1 19.6   704 – Lincoln Laboratory ETS, New Mexico MPS 15573
1999 10 12.28556 02 43 24.38 +22 20 53.4 19.6   704 – Lincoln Laboratory ETS, New Mexico MPS 15573
1999 10 12.29919 02 43 23.64 +22 20 51.7 19.3   704 – Lincoln Laboratory ETS, New Mexico MPS 15573
1999 10 12.31282 02 43 22.95 +22 20 51.5 19.3   704 – Lincoln Laboratory ETS, New Mexico MPS 15573
1999 10 12.32698 02 43 22.13 +22 20 50.1 19.2   704 – Lincoln Laboratory ETS, New Mexico MPS 15573
1999 10 22.26398 02 33 45.95 +22 00 04.9 19.2   704 – Lincoln Laboratory ETS, New Mexico MPS 15573
1999 10 22.27693 02 33 45.22 +22 00 02.8 18.7   704 – Lincoln Laboratory ETS, New Mexico MPS 15573
1999 10 22.28982 02 33 44.41 +22 00 01.6 19.1   704 – Lincoln Laboratory ETS, New Mexico MPS 15573
1999 11 03.31037 02 21 07.34 +21 16 47.2 18.4   704 – Lincoln Laboratory ETS, New Mexico MPS 14028
1999 11 03.32648 02 21 06.37 +21 16 44.0 19.0   704 – Lincoln Laboratory ETS, New Mexico MPS 14028
1999 11 03.34262 02 21 05.30 +21 16 39.2 18.5   704 – Lincoln Laboratory ETS, New Mexico MPS 14028
1999 11 03.35870 02 21 04.20 +21 16 35.0 18.7   704 – Lincoln Laboratory ETS, New Mexico MPS 14028
1999 11 03.37477 02 21 03.20 +21 16 31.6 18.6   704 – Lincoln Laboratory ETS, New Mexico MPS 14028
1999 11 04.25086 02 20 09.11 +21 12 49.5 19.5   704 – Lincoln Laboratory ETS, New Mexico MPS 14028
1999 11 04.26739 02 20 08.23 +21 12 43.5 19.7   704 – Lincoln Laboratory ETS, New Mexico MPS 14028
1999 11 04.28390 02 20 07.18 +21 12 40.4 19.8   704 – Lincoln Laboratory ETS, New Mexico MPS 14028
1999 11 04.30080 02 20 06.09 +21 12 35.0 19.9   704 – Lincoln Laboratory ETS, New Mexico MPS 14028
2001 02 22.098540 07 28 59.062 +26 15 32.61 21.48 V 645 – Apache Point-Sloan Digital Sky Survey MPS 79623
2001 02 22.102012 07 28 58.953 +26 15 32.33 22.22   645 – Apache Point-Sloan Digital Sky Survey MPS 79623
2002 03 13.33191 12 06 32.38 -02 52 09.7 20.1   704 – Lincoln Laboratory ETS, New Mexico MPS 51692
2002 03 13.36929 12 06 30.30 -02 52 01.2 20.0   704 – Lincoln Laboratory ETS, New Mexico MPS 51692
2002 03 13.38430 12 06 29.47 -02 51 57.1 20.4   704 – Lincoln Laboratory ETS, New Mexico MPS 51692
2002 03 13.39984 12 06 28.61 -02 51 55.5 20.3   704 – Lincoln Laboratory ETS, New Mexico MPS 51692
2002 03 13.48736 12 06 23.86 -02 51 34.0 20.3   644 – Palomar Mountain/NEAT MPS 51692
2002 03 13.49797 12 06 23.28 -02 51 31.3 20.2   644 – Palomar Mountain/NEAT MPS 51692
2002 03 13.50833 12 06 22.71 -02 51 29.3 20.7   644 – Palomar Mountain/NEAT MPS 51692
2002 04 04.25671 11 46 25.64 -01 15 29.1 19.9   644 – Palomar Mountain/NEAT MPS 54533
2002 04 04.27769 11 46 24.48 -01 15 23.6 20.1   644 – Palomar Mountain/NEAT MPS 54533
2002 04 04.30000 11 46 23.28 -01 15 17.9 19.9   644 – Palomar Mountain/NEAT MPS 54533
2002 04 14.19666 11 38 25.63 -00 34 58.8 19.5   704 – Lincoln Laboratory ETS, New Mexico MPS 54533
2002 04 14.21102 11 38 24.99 -00 34 55.3 19.7   704 – Lincoln Laboratory ETS, New Mexico MPS 54533
2002 04 14.22503 11 38 24.35 -00 34 53.2 19.8   704 – Lincoln Laboratory ETS, New Mexico MPS 54533
2002 04 14.23892 11 38 23.73 -00 34 50.1 19.9   704 – Lincoln Laboratory ETS, New Mexico MPS 54533
2002 04 14.25281 11 38 23.11 -00 34 47.2 19.6   704 – Lincoln Laboratory ETS, New Mexico MPS 54533
2003 07 05.40531 00 11 02.37 -00 20 58.9 19.2 R 699 – Lowell Observatory-LONEOS MPS 82113
2003 07 05.41696 00 11 03.03 -00 20 52.6   699 – Lowell Observatory-LONEOS MPS 82113
2003 07 05.42863 00 11 03.85 -00 20 46.1   699 – Lowell Observatory-LONEOS MPS 82113
2003 07 05.44032 00 11 04.54 -00 20 39.0   699 – Lowell Observatory-LONEOS MPS 82113
2003 07 30.38854 00 30 12.88 +02 53 05.5 19.0   704 – Lincoln Laboratory ETS, New Mexico MPS 82375
2003 07 30.39958 00 30 13.17 +02 53 09.2 19.8   704 – Lincoln Laboratory ETS, New Mexico MPS 82375
2003 07 30.41088 00 30 13.45 +02 53 13.6 19.7   704 – Lincoln Laboratory ETS, New Mexico MPS 82375
2003 07 30.42170 00 30 13.61 +02 53 18.0 19.8   704 – Lincoln Laboratory ETS, New Mexico MPS 82375
2003 07 30.43249 00 30 13.91 +02 53 21.1 19.6   704 – Lincoln Laboratory ETS, New Mexico MPS 82375
2003 08 22.31282 00 31 01.82 +04 22 40.5 18.4 C 704 – Lincoln Laboratory ETS, New Mexico MPS 290964
2003 08 22.32537 00 31 01.43 +04 22 41.9 18.7 C 704 – Lincoln Laboratory ETS, New Mexico MPS 290964
2003 08 22.33801 00 31 01.24 +04 22 42.0 18.4 C 704 – Lincoln Laboratory ETS, New Mexico MPS 290964
2003 08 22.35048 00 31 00.89 +04 22 43.9 18.5 C 704 – Lincoln Laboratory ETS, New Mexico MPS 290964
2003 08 22.36316 00 31 00.57 +04 22 44.4 18.4 C 704 – Lincoln Laboratory ETS, New Mexico MPS 290964
2003 08 25.33119 00 29 49.62 +04 27 12.3 19.0   704 – Lincoln Laboratory ETS, New Mexico MPS 83230
2003 08 25.34428 00 29 49.21 +04 27 14.1 19.2   704 – Lincoln Laboratory ETS, New Mexico MPS 83230
2003 08 25.35674 00 29 48.84 +04 27 14.1 19.4   704 – Lincoln Laboratory ETS, New Mexico MPS 83230
2003 08 25.36973 00 29 48.42 +04 27 14.6 19.5   704 – Lincoln Laboratory ETS, New Mexico MPS 83230
2003 08 25.38226 00 29 48.12 +04 27 16.4 19.7   704 – Lincoln Laboratory ETS, New Mexico MPS 83230
2003 08 31.34234 00 26 35.43 +04 31 09.4 18.3 V 291 – LPL/Spacewatch II MPS 83940
2003 08 31.36557 00 26 34.50 +04 31 09.5 18.4 V 291 – LPL/Spacewatch II MPS 83940
2003 08 31.38891 00 26 33.56 +04 31 09.6 18.5 V 291 – LPL/Spacewatch II MPS 83940
2003 09 03.38170 00 24 33.90 +04 30 42.0 18.9   704 – Lincoln Laboratory ETS, New Mexico MPS 83940
2003 09 03.39347 00 24 33.39 +04 30 41.7 19.1   704 – Lincoln Laboratory ETS, New Mexico MPS 83940
2003 09 03.40529 00 24 32.84 +04 30 41.0 19.0   704 – Lincoln Laboratory ETS, New Mexico MPS 83940
2003 09 08.29570 00 20 50.18 +04 26 46.7 18.0 R 699 – Lowell Observatory-LONEOS MPS 84922
2003 09 08.30893 00 20 49.46 +04 26 44.4   699 – Lowell Observatory-LONEOS MPS 84922
2003 09 08.32217 00 20 48.84 +04 26 41.9   699 – Lowell Observatory-LONEOS MPS 84922
2003 09 08.33534 00 20 48.19 +04 26 41.8   699 – Lowell Observatory-LONEOS MPS 84922
2003 09 09.52139 00 19 49.28 +04 25 13.4 18.8   608 – Haleakala-AMOS MPS 84922
2003 09 09.53244 00 19 48.73 +04 25 12.2 19.2   608 – Haleakala-AMOS MPS 84922
2003 09 09.54314 00 19 48.13 +04 25 11.7 19.1   608 – Haleakala-AMOS MPS 84922
2003 09 16.28119 00 13 51.07 +04 13 07.9 17.8 R 699 – Lowell Observatory-LONEOS MPS 84922
2003 09 16.30104 00 13 49.90 +04 13 05.9   699 – Lowell Observatory-LONEOS MPS 84922
2003 09 16.32105 00 13 48.75 +04 13 03.1   699 – Lowell Observatory-LONEOS MPS 84922
2003 09 16.34104 00 13 47.65 +04 13 01.8   699 – Lowell Observatory-LONEOS MPS 84922
2003 09 19.29753 00 11 01.80 +04 06 08.1 18.3   704 – Lincoln Laboratory ETS, New Mexico MPS 84922
2003 09 19.30989 00 11 01.05 +04 06 06.3 18.3   704 – Lincoln Laboratory ETS, New Mexico MPS 84922
2003 09 19.32217 00 11 00.37 +04 06 04.7 18.3   704 – Lincoln Laboratory ETS, New Mexico MPS 84922
2003 09 19.33422 00 10 59.66 +04 06 02.8 18.5   704 – Lincoln Laboratory ETS, New Mexico MPS 84922
2003 09 19.34651 00 10 58.89 +04 06 00.9 18.6   704 – Lincoln Laboratory ETS, New Mexico MPS 84922
